sat.trackr.live / text

‹ back to catalog

STARLINK-31290

NORAD 59085 · 2024-041M

PAYLOAD ACTIVE UNKNOWN

§ Identity

Operator
Country
US
Launch date
2024-02-29
Launch site
AFETR
Launch vehicle
Mass (kg)
RCS (m²)

Purposes: comms

External: N2YO · Heavens-Above · Gunter

§ Orbital elements

Epoch: 2026-05-24T21:53:19.093920Z

Period
94.27 min
Inclination
43.0009°
Eccentricity
0.0001252
Mean motion
15.27579725 rev/d
Perigee alt
482.2 km
Apogee alt
483.9 km
Semi-major
6,861.2 km
B*
6.0889e-5
RAAN
225.9705°
Arg perigee
273.2267°
Mean anomaly
86.8441°
Rev number
12,623

§ Raw data

STARLINK-312901 59085U 24041M   26144.91202655  .00001414  00000+0  60889-4 0  99992 59085  43.0009 225.9705 0001252 273.2267  86.8441 15.27579725126239

JSON: /api/v1/satellites/59085 · /tle

For live sub-satellite position, see the globe view (requires WebGL).

§ Visibility from observer

Set your observer location to see the next 7 days of passes ≥ 10°. The values pass through the URL so the page stays shareable.

No JS? Fill the form by hand. The geolocation button needs JavaScript.